ECMWFFLT2_925_spd_057.txt.gz
Wind_Speed
4 4 4 7 6 3 2 1 3 5 5 3 1 3 6 4 3 2 3 4 4 5 6 8 9 12 17 16 11 20 21 19 19 18 18 19 18 18 18 17 18 18 19 21 26 28 29 32 34 35 37 39 40 39 41 43 43 43 42 42 42 43 43
13 15 13 2 9 5 2 1 4 3 4 4 0 0 3 3 2 2 3 6 4 3 4 8 10 11 14 14 10 14 20 20 20 19 19 21 21 20 20 19 18 18 18 21 26 29 31 35 37 38 38 39 40 40 42 43 42 43 43 42 41 41 42
15 15 13 5 4 5 4 3 5 1 2 2 2 0 2 1 2 3 4 7 5 3 4 7 12 12 10 12 11 12 20 22 19 18 20 22 21 19 18 17 16 16 17 22 27 30 32 35 38 40 39 38 39 39 41 44 44 44 44 42 41 40 41
14 10 6 4 2 1 2 5 5 2 3 2 1 2 2 1 2 3 3 5 5 4 4 5 9 11 10 11 11 12 20 23 20 17 18 19 19 17 16 16 17 17 18 24 30 32 33 35 36 38 38 37 38 38 39 42 43 42 42 42 41 41 41
10 5 3 6 8 7 6 6 5 3 1 1 1 2 2 2 3 2 3 4 5 6 5 3 5 7 11 13 8 9 15 20 22 21 19 18 17 17 17 17 17 18 19 24 31 34 34 35 35 37 37 37 37 37 37 40 41 41 41 42 42 41 41
5 7 11 14 13 10 6 4 5 4 4 3 3 3 3 3 1 2 3 3 6 7 3 6 11 12 8 11 9 5 8 16 23 22 20 20 19 17 18 18 18 19 17 21 28 31 32 32 32 34 36 36 36 36 36 38 39 41 42 42 42 42 42
7 11 16 17 15 12 10 7 5 5 4 3 3 3 3 2 2 3 1 2 7 7 7 11 12 18 16 5 8 6 5 12 22 24 23 23 21 19 19 18 18 17 17 21 26 28 30 31 32 34 35 36 36 36 36 37 38 41 42 42 43 42 41
8 10 11 12 10 8 8 7 6 6 7 6 4 3 3 2 1 2 1 1 7 4 11 13 13 20 20 12 6 4 3 3 14 20 21 22 20 20 20 18 17 16 16 19 21 23 27 29 30 33 34 35 36 35 35 37 39 41 41 41 41 41 42
6 6 5 6 7 8 6 7 10 10 12 12 7 5 6 4 3 5 3 3 6 5 13 16 16 18 16 16 19 15 11 11 7 2 7 17 21 19 19 17 16 16 16 16 16 18 24 26 29 32 33 34 36 35 35 36 39 40 40 39 39 40 41
3 4 3 2 6 8 6 9 15 14 14 15 9 5 4 4 5 6 2 4 6 11 16 16 16 16 14 16 19 18 17 18 16 15 9 8 16 17 20 21 17 15 15 15 15 18 23 26 28 31 32 34 36 36 35 35 36 38 39 38 38 38 39
5 6 7 7 8 9 9 13 18 16 13 12 7 3 2 4 7 4 1 3 10 13 15 15 14 14 14 14 15 16 16 17 17 17 16 12 7 5 7 13 17 18 17 17 17 19 24 28 30 31 33 34 36 36 37 36 35 36 37 38 37 37 37
8 9 14 15 12 11 12 14 16 16 14 11 7 4 4 5 7 5 2 7 11 11 11 11 11 12 12 12 14 14 14 15 15 16 18 19 18 17 14 8 2 12 16 18 19 19 23 27 28 30 33 35 37 37 38 37 35 35 36 36 37 37 36
11 11 14 16 14 12 13 13 14 16 16 14 9 8 7 5 5 7 7 10 11 10 9 9 9 10 11 11 12 13 15 15 16 17 19 20 20 19 18 18 15 8 2 5 10 14 20 25 27 28 30 32 34 35 36 36 35 35 35 35 36 35 35
13 13 12 14 15 13 13 14 13 14 16 17 13 11 9 7 9 11 10 10 9 6 4 6 8 8 7 9 11 14 17 17 17 18 19 19 19 18 17 17 17 15 13 10 6 2 4 10 15 20 24 28 31 32 34 34 34 35 35 35 36 36 36
10 13 13 13 14 14 15 15 13 13 17 17 13 11 8 6 9 12 10 8 6 3 2 3 5 6 7 9 11 13 15 16 17 17 18 18 17 16 17 16 15 14 15 14 13 11 9 7 2 3 9 18 26 29 31 33 33 35 36 35 34 35 36
7 9 12 13 13 14 15 15 14 13 14 14 12 9 7 6 8 10 9 6 4 4 5 6 8 8 10 11 11 12 13 15 16 16 17 17 16 16 16 15 15 15 15 14 13 12 11 10 8 5 2 7 18 23 23 23 20 21 26 31 34 36 35
6 8 10 12 12 11 10 10 10 10 10 12 12 10 9 9 8 7 6 4 4 6 7 9 11 11 11 11 10 11 11 13 15 15 16 16 16 16 15 15 15 15 12 12 14 16 16 15 11 7 3 3 11 17 17 15 11 6 11 19 24 31 35
5 7 8 9 8 7 7 5 3 5 6 7 8 8 8 8 6 5 5 6 7 7 7 6 8 8 9 9 9 9 10 11 11 13 15 15 15 15 14 15 15 13 12 14 19 22 22 20 18 12 5 3 8 10 10 14 18 16 14 20 24 25 31
4 5 4 5 5 6 8 6 6 8 7 8 9 8 6 11 11 9 9 9 9 8 8 7 7 6 6 9 11 11 11 11 12 13 13 14 15 15 14 14 13 12 14 16 19 23 26 26 24 21 14 8 4 5 8 12 18 24 26 28 30 30 31
4 3 2 4 5 6 9 8 7 8 6 8 9 6 6 12 12 10 10 9 9 9 9 9 10 8 3 7 11 13 13 12 13 13 13 14 15 14 14 15 14 15 18 19 19 20 22 24 24 24 23 20 15 11 17 21 23 27 30 33 37 36 34
3 4 3 4 7 8 8 5 4 6 6 6 6 3 3 9 10 9 9 9 10 10 10 11 12 12 5 3 8 14 16 14 14 14 14 14 14 15 17 19 19 21 23 23 24 23 21 21 20 20 22 24 22 17 17 25 29 30 30 32 36 37 35
4 4 4 3 6 6 3 2 3 6 7 6 4 2 1 5 9 10 9 10 11 11 10 11 13 10 4 2 5 12 16 15 15 15 14 15 16 17 20 21 22 24 26 25 26 26 24 22 21 20 23 26 26 23 18 18 25 30 30 32 36 37 36
3 4 4 4 5 3 1 4 7 8 7 6 5 3 2 3 8 9 9 11 12 12 11 11 10 6 3 2 5 10 14 14 13 13 13 16 19 20 21 21 22 24 26 25 26 26 25 24 25 24 25 27 26 24 22 19 17 24 30 34 38 39 38
6 6 5 4 3 0 3 7 10 11 9 6 4 3 1 3 7 7 7 9 10 11 11 10 7 5 3 4 6 10 13 12 10 10 10 13 18 21 21 23 24 24 25 25 24 24 25 27 28 26 24 24 24 25 25 22 20 21 27 35 39 38 36
7 8 6 4 2 1 2 6 10 12 8 3 2 2 1 3 6 6 6 6 7 8 9 8 5 4 5 7 9 10 11 11 11 10 11 13 18 21 22 24 26 25 24 24 23 23 26 29 29 26 24 22 23 25 25 24 24 24 25 30 34 33 31
4 5 5 4 3 2 2 5 7 6 4 2 2 2 3 5 6 7 6 5 5 5 7 6 6 8 9 10 11 10 10 10 10 11 13 15 17 19 22 24 26 25 24 24 24 24 26 29 28 26 25 24 25 25 24 26 29 29 27 27 30 31 29
2 2 4 4 2 1 5 8 5 2 2 2 2 3 4 5 6 7 6 6 5 5 6 7 9 11 12 11 11 11 10 9 10 10 11 12 13 17 21 23 25 25 23 23 24 24 25 27 28 26 25 25 27 25 25 29 32 30 29 29 31 34 33
1 2 2 2 2 2 5 6 3 1 3 2 2 4 5 5 5 5 5 5 6 7 8 8 9 11 11 11 11 11 11 9 9 10 11 11 12 15 19 22 25 25 23 23 24 24 24 27 29 28 25 26 27 28 31 34 32 29 30 33 33 37 37
2 3 2 2 3 4 4 3 2 3 5 4 4 6 6 5 5 5 5 6 7 8 9 9 9 9 10 10 10 11 11 10 9 10 11 11 11 14 19 22 24 24 23 24 24 23 25 29 30 29 27 26 27 31 35 37 33 30 32 33 34 38 38
2 4 4 1 3 5 6 2 1 3 5 5 6 7 6 6 6 6 6 7 8 8 9 9 9 9 10 10 10 10 11 11 10 10 11 12 12 15 18 21 23 24 24 24 24 24 26 30 33 35 32 28 28 33 38 38 34 33 35 34 34 38 38
1 2 2 1 5 7 5 3 3 5 6 6 6 6 6 7 7 7 7 8 8 9 9 9 10 11 11 11 10 9 10 10 9 8 9 12 14 15 18 21 23 25 24 22 23 25 27 30 37 41 40 38 36 36 37 35 32 34 37 33 32 36 36
3 4 3 4 7 6 2 2 4 5 5 7 8 7 7 8 8 8 9 9 8 8 9 10 12 13 13 11 10 9 9 9 9 7 8 12 15 16 19 21 21 22 23 21 23 25 27 32 41 45 44 44 43 38 33 30 30 34 33 30 32 34 34
5 5 3 5 7 5 1 3 6 6 6 8 10 10 10 10 10 9 9 10 10 10 10 10 12 13 13 11 11 11 9 8 9 9 10 13 15 16 19 20 20 21 23 22 23 25 28 36 45 46 44 42 38 32 29 28 29 31 26 24 32 32 32
4 3 2 3 4 5 3 5 8 8 7 9 10 10 10 11 10 10 10 11 12 12 13 13 12 12 13 12 12 11 9 9 12 14 13 13 13 15 18 19 19 22 24 24 24 27 31 38 44 42 39 37 34 30 28 27 27 26 21 16 25 27 27
4 4 3 1 2 4 5 6 8 7 7 8 9 9 9 10 10 10 10 10 11 12 12 14 15 13 13 14 15 12 10 12 16 18 16 13 11 13 16 17 18 22 26 26 25 27 31 36 38 36 33 33 32 29 27 25 23 23 18 11 14 20 22
4 5 4 2 3 4 5 6 7 6 6 7 9 10 10 9 10 11 10 10 11 10 10 14 17 17 17 17 17 13 12 15 18 19 18 15 12 12 14 14 16 21 24 24 25 27 30 33 35 35 33 32 32 30 27 24 22 20 17 13 11 16 20
4 4 3 2 3 4 5 5 5 6 6 7 9 11 11 11 13 14 12 11 12 13 12 13 17 20 20 19 19 16 15 17 19 20 19 16 13 11 10 11 15 19 22 25 26 27 29 32 34 35 32 31 32 33 30 25 20 18 17 16 14 13 13

ECMWFFLT2_925_spd_060.txt.gz
Wind_Speed
6 12 11 5 3 0 3 2 2 5 4 6 3 2 1 4 3 3 1 1 4 4 6 8 7 10 10 12 17 18 18 18 15 14 15 16 15 16 17 17 18 19 20 24 26 30 32 33 36 38 40 41 42 41 42 42 42 42 43 43 43 42 42
9 14 10 5 9 6 3 2 4 5 1 4 3 0 1 3 3 3 1 2 4 4 4 7 8 9 9 5 11 17 16 15 16 15 16 18 18 18 19 19 18 17 19 23 27 30 33 36 38 40 41 42 42 42 43 43 41 42 43 43 43 42 41
10 12 9 6 10 10 5 2 5 1 3 1 1 2 2 2 2 3 3 1 2 2 3 9 13 12 13 13 8 14 16 14 15 16 17 19 18 16 16 15 15 15 17 23 28 29 33 37 38 40 41 40 40 41 42 43 43 44 43 42 42 41 42
7 7 7 4 8 11 8 6 5 3 2 2 0 2 4 3 3 3 3 2 2 2 4 9 14 14 15 17 13 9 17 16 15 16 16 17 16 15 14 14 15 16 18 25 30 31 33 37 37 38 39 39 39 40 40 42 43 43 42 42 41 41 42
4 3 5 4 4 7 7 7 7 6 3 0 0 1 1 3 3 3 2 1 2 3 4 7 13 14 14 17 18 10 13 17 17 17 16 16 16 16 15 15 16 17 18 24 30 32 33 35 36 36 38 38 38 38 39 41 41 41 41 42 41 41 41
2 2 2 5 5 4 2 6 6 6 5 3 2 3 3 1 2 3 5 3 2 4 5 6 10 12 14 17 19 16 8 9 15 17 17 17 16 17 17 16 17 16 16 21 27 30 31 32 33 34 36 37 37 37 38 40 40 41 42 42 42 41 40
4 5 5 2 4 3 7 9 7 6 6 5 3 2 4 4 2 2 1 3 2 3 6 6 8 11 14 16 18 18 16 10 4 8 14 16 16 17 17 17 17 16 16 21 26 27 29 30 32 34 35 36 37 38 38 38 39 41 42 42 43 42 41
5 6 3 4 8 8 7 7 8 7 6 6 3 2 1 2 2 3 2 1 2 5 9 7 8 11 13 16 19 19 18 17 15 9 4 10 14 16 17 17 16 14 15 19 20 21 24 27 30 33 34 35 36 36 37 38 39 41 41 42 41 41 41
6 4 4 4 6 8 4 3 6 8 9 10 7 3 3 2 1 2 0 2 3 6 9 9 9 12 14 16 19 19 18 18 18 17 12 4 4 7 11 14 15 14 14 15 15 19 23 25 28 31 32 34 35 36 36 37 39 40 40 40 40 41 41
2 3 3 4 5 6 3 2 5 8 10 11 7 4 3 2 2 4 1 3 4 8 10 12 11 11 13 15 17 17 17 18 18 18 17 13 10 7 4 1 5 8 12 13 15 19 23 25 27 30 32 33 34 35 36 36 37 38 40 40 39 40 40
3 4 4 4 6 7 8 8 7 6 8 8 5 2 2 2 4 5 3 1 7 11 11 12 12 11 10 11 14 15 15 17 18 17 17 16 14 13 14 13 10 6 1 5 10 17 24 27 29 30 32 34 34 35 36 36 37 37 38 39 39 39 39
3 3 5 7 8 8 10 13 11 7 6 6 5 3 5 5 5 5 5 3 8 10 9 10 11 10 8 8 10 12 13 15 15 16 17 19 18 17 17 16 16 15 13 9 5 4 12 20 26 29 30 32 35 36 36 36 36 37 38 38 39 39 38
5 5 7 9 9 9 8 11 13 11 7 5 4 4 7 7 4 6 7 6 6 6 7 8 8 8 8 7 7 9 12 13 14 16 19 20 20 19 19 18 16 16 16 14 13 12 11 6 7 16 23 26 29 31 34 34 34 35 37 38 38 38 38
5 5 6 8 9 10 9 9 11 13 11 7 5 5 8 9 8 8 7 6 4 3 5 6 6 7 7 6 7 9 12 13 14 16 18 18 18 18 18 17 15 15 15 14 15 17 20 21 17 9 7 15 21 24 26 29 31 32 35 37 37 37 38
5 5 5 7 8 9 10 10 9 11 13 11 6 5 6 6 7 8 7 4 2 3 6 7 6 7 7 9 10 10 10 11 13 15 15 15 16 17 17 17 16 16 16 15 15 17 19 20 21 20 17 11 11 21 23 23 24 26 29 32 34 36 37
4 4 6 8 8 9 11 10 7 8 10 9 6 3 2 3 4 5 5 3 2 5 7 7 7 8 9 10 11 10 9 10 12 14 14 13 14 16 16 16 16 17 17 15 15 17 20 21 20 21 23 21 12 10 21 24 23 24 27 30 32 35 36
2 2 4 7 7 7 7 5 3 4 4 5 5 3 5 5 2 0 1 1 4 6 7 8 9 9 8 8 8 9 9 10 11 13 13 12 13 14 14 14 15 15 15 15 17 19 20 20 21 21 20 19 19 13 8 20 27 29 30 33 34 36 36
1 0 3 5 4 4 5 2 2 3 3 6 5 3 5 6 4 2 1 3 5 6 6 7 8 7 6 7 7 8 8 9 10 11 12 11 11 12 13 13 14 14 15 18 21 22 23 22 22 21 19 18 18 16 10 11 23 31 33 32 33 33 33
2 2 4 3 3 5 4 1 3 3 4 5 4 4 5 6 6 5 5 6 7 7 7 6 5 5 4 5 8 10 9 8 8 8 10 10 11 12 13 12 12 13 17 21 23 25 26 25 23 21 21 23 23 17 13 10 13 23 32 34 34 33 33
1 2 3 2 5 5 7 5 2 3 4 4 3 3 3 4 5 4 4 5 7 8 9 8 7 7 4 2 7 11 10 8 7 7 8 9 9 10 12 13 13 14 17 19 21 23 24 23 22 24 25 25 25 22 16 13 13 15 22 29 32 34 35
2 3 3 4 6 8 8 5 1 3 3 4 2 1 1 2 4 5 4 5 7 8 10 11 12 11 5 4 3 10 13 11 8 6 6 7 9 10 13 15 16 17 18 19 20 22 23 22 22 27 30 28 25 24 20 14 14 16 18 23 28 30 32
2 3 3 3 5 6 4 2 1 3 4 5 3 3 2 1 4 5 4 5 7 7 8 10 12 11 5 2 1 8 13 12 10 8 6 7 10 11 13 16 18 18 20 20 20 22 23 23 23 25 28 29 27 23 20 17 15 16 17 21 26 28 30
1 3 3 4 6 5 3 2 3 4 5 6 3 1 1 0 4 6 5 5 6 6 6 8 8 6 4 3 3 8 13 13 11 9 8 9 12 13 14 16 17 18 20 19 20 22 23 25 27 25 23 26 26 21 19 19 18 18 18 18 19 23 28
4 4 4 4 4 3 1 2 4 5 6 3 2 1 2 0 3 6 5 5 6 5 5 5 4 3 3 5 7 9 13 14 13 12 10 10 12 14 15 17 18 17 17 17 19 21 22 25 28 25 22 22 22 20 20 20 18 18 19 19 18 20 22
6 6 5 4 4 2 1 4 6 7 5 2 2 3 2 1 4 6 4 5 6 6 5 4 2 1 3 7 9 11 12 13 13 15 16 15 14 13 14 17 20 19 17 16 17 19 21 24 25 25 23 21 20 21 21 19 18 19 21 22 22 22 22
4 4 4 5 4 1 2 6 7 5 2 1 2 2 2 2 5 5 3 4 5 5 6 5 4 4 6 8 11 11 11 12 12 14 17 18 17 14 12 14 18 20 19 17 17 19 21 22 22 24 24 21 21 21 21 21 24 24 24 24 25 25 26
2 2 3 4 3 1 3 5 5 2 1 2 3 3 2 3 4 3 3 3 4 5 6 7 7 8 8 9 11 11 11 11 12 13 16 18 18 17 14 14 17 19 19 18 17 19 21 21 21 22 22 22 23 23 23 26 30 29 27 26 26 26 27
2 2 3 3 2 2 2 1 1 2 2 2 3 4 3 4 3 3 3 4 4 5 6 8 9 9 9 8 10 11 12 11 11 13 16 18 20 19 17 17 18 18 19 20 20 19 21 22 21 21 20 21 23 25 28 31 32 31 29 27 26 25 25
3 4 5 3 3 3 4 3 3 4 4 3 3 3 4 4 3 3 4 5 5 6 7 9 9 9 9 9 9 10 12 11 11 13 17 20 21 21 20 20 20 19 19 21 21 21 22 22 22 21 21 21 22 26 31 34 33 32 31 28 26 25 24
3 5 6 5 3 3 4 3 3 3 3 4 4 4 4 4 5 5 5 5 6 6 7 8 8 8 9 10 10 10 11 12 13 15 17 20 22 22 22 22 22 20 19 20 21 21 23 24 23 22 22 22 24 27 31 32 32 32 31 28 25 24 24
2 3 4 3 2 4 5 4 3 3 3 4 4 4 5 5 6 7 6 6 7 6 6 7 9 9 10 10 10 10 10 11 12 13 15 19 22 23 24 24 23 21 19 19 20 21 23 25 24 23 24 25 26 28 29 29 30 31 29 26 24 25 26
3 4 6 4 3 5 5 3 2 3 4 5 5 5 6 7 7 7 7 7 6 6 6 7 9 10 10 10 11 10 9 10 10 12 16 19 22 25 27 27 24 20 17 18 20 21 24 26 25 23 24 26 29 30 28 26 26 27 27 25 24 25 27
4 6 6 4 4 6 4 2 4 4 3 5 6 7 7 8 8 8 9 8 8 8 8 7 8 11 11 10 10 11 11 10 10 13 18 22 24 25 27 28 26 21 17 18 19 21 25 27 26 24 24 27 30 30 28 26 25 26 27 26 24 25 25
4 5 4 2 2 5 5 5 6 6 4 5 7 7 7 8 8 9 10 10 10 11 11 10 9 10 11 10 10 12 11 11 13 17 19 22 25 26 27 28 28 24 18 17 19 21 24 27 26 24 24 28 31 30 28 27 26 26 28 28 25 25 23
5 6 5 5 4 5 6 6 6 6 5 5 7 7 7 8 9 9 10 11 10 10 12 13 12 10 10 12 13 12 13 16 20 21 21 22 24 26 27 27 26 24 19 17 19 21 24 27 26 24 25 29 32 32 30 29 29 28 29 28 25 23 22
5 5 6 6 5 5 6 6 6 6 5 5 6 7 7 7 9 11 11 11 11 10 10 13 15 15 14 15 16 14 15 20 23 23 24 25 25 26 27 25 23 22 19 18 20 21 24 26 26 25 26 30 33 32 32 32 31 30 28 27 25 22 20
5 5 5 6 6 6 6 5 5 6 6 6 6 7 9 10 12 14 13 11 12 13 10 11 15 18 18 18 19 18 18 20 23 24 25 26 25 25 25 24 22 21 19 20 21 22 23 24 25 26 26 29 31 33 34 34 33 30 27 25 24 23 20

ECMWFFLT2_925_spd_063.txt.gz
Wind_Speed
5 7 6 2 4 2 2 3 2 2 2 4 4 1 1 4 4 1 1 0 4 2 3 12 15 15 16 16 15 14 12 9 7 11 12 13 15 15 15 16 16 17 18 22 26 28 30 31 34 36 37 39 39 38 38 39 39 40 41 41 41 42 41
7 8 5 2 8 4 2 2 3 4 1 3 3 1 2 5 3 2 1 4 4 4 2 8 15 17 18 18 17 15 15 12 6 10 12 13 15 16 16 16 16 15 16 21 25 28 31 33 35 37 38 39 40 40 39 39 39 39 40 41 41 41 40
7 8 5 3 9 9 3 2 3 3 3 2 1 2 2 2 2 2 2 3 3 4 3 7 13 14 15 16 16 16 17 17 12 9 12 14 14 14 14 14 14 14 15 21 26 28 31 34 35 37 38 37 38 39 39 40 41 41 42 41 40 40 40
5 6 6 4 7 9 5 3 5 4 2 2 1 2 3 3 3 3 1 3 2 2 5 7 9 10 12 14 14 14 16 17 16 12 8 13 14 13 14 14 14 15 17 23 28 30 31 33 34 35 36 36 37 38 38 39 40 40 40 41 41 40 39
4 2 4 4 4 5 6 7 7 6 4 2 2 1 1 3 3 3 3 3 2 4 5 7 8 9 10 11 12 12 14 16 17 18 13 7 14 14 14 15 15 16 17 22 28 30 30 31 31 33 34 35 36 37 37 38 38 38 39 40 40 39 39
4 1 4 5 5 6 7 6 5 5 5 4 2 2 2 2 3 2 4 4 3 4 4 6 6 7 7 9 11 10 13 17 18 19 19 11 7 12 13 14 14 14 16 20 26 28 28 29 29 31 33 34 35 35 37 38 37 37 39 39 40 39 39
1 2 3 7 7 6 8 8 6 4 5 5 2 1 3 4 3 1 3 4 4 4 3 5 5 5 6 8 10 10 12 15 17 19 21 19 10 3 4 6 8 9 12 17 22 25 27 28 29 31 33 34 35 36 36 37 37 38 39 39 39 39 38
4 3 1 6 9 7 6 6 7 6 5 4 1 3 0 2 4 4 2 3 3 4 4 5 5 5 6 8 9 11 11 12 16 19 20 20 18 15 11 7 3 2 5 11 15 19 24 26 28 31 33 33 34 36 36 36 37 38 39 39 38 38 38
4 4 4 5 8 8 4 4 6 6 8 9 4 1 2 3 3 3 1 3 3 5 4 6 7 8 8 10 10 10 11 12 13 16 17 18 18 19 18 15 13 10 6 3 4 11 18 23 26 29 32 33 34 34 35 36 37 38 38 38 37 37 37
2 1 1 3 4 5 3 4 6 6 8 10 5 3 3 2 2 3 2 2 5 7 6 9 11 11 11 12 12 11 11 12 12 13 15 15 16 18 19 18 16 14 12 12 12 10 7 12 20 25 27 30 32 33 35 35 36 37 37 37 36 36 36
3 4 2 3 3 3 3 5 7 6 6 6 4 3 2 0 3 3 2 1 6 9 10 12 12 13 13 13 14 13 12 13 13 12 13 14 14 15 16 17 16 16 16 15 17 20 19 13 6 13 22 26 27 28 31 33 34 34 36 36 36 36 36
3 4 4 4 2 1 2 5 6 5 6 5 4 2 1 1 3 3 4 1 5 8 10 12 11 11 11 12 13 13 12 12 12 12 14 16 15 15 16 17 17 17 17 16 17 21 23 23 20 12 6 16 23 26 27 29 31 32 33 34 35 35 36
1 2 3 3 2 1 2 3 3 5 6 5 2 3 4 2 2 4 6 4 4 5 9 11 10 9 10 10 10 10 11 12 12 13 16 17 17 17 17 17 16 16 15 14 16 20 22 23 25 24 19 10 9 21 27 27 27 30 32 32 33 34 34
1 2 3 3 4 3 3 2 3 3 4 5 5 5 6 5 6 7 7 4 1 3 7 8 7 7 7 7 7 10 13 14 14 15 15 16 16 16 16 15 14 14 14 14 16 20 23 24 24 24 24 23 17 8 19 27 27 28 30 31 32 33 34
3 3 2 4 4 4 4 4 5 5 5 6 5 5 6 5 6 5 3 2 2 2 6 7 6 5 6 8 9 10 12 13 14 15 14 14 15 15 15 15 14 13 13 14 17 19 21 23 24 23 23 23 23 19 8 18 27 29 30 32 34 34 35
4 4 5 7 6 4 3 2 2 2 2 2 2 2 2 2 4 4 1 1 1 3 6 6 6 7 8 9 10 9 9 10 13 14 13 13 14 15 15 15 14 15 15 14 16 18 20 22 23 24 25 24 24 25 21 11 16 27 32 33 34 36 36
4 5 6 8 8 5 2 1 1 2 2 0 1 2 3 2 1 2 1 1 0 3 5 6 7 8 7 7 8 8 8 9 10 11 11 12 12 13 13 14 13 13 14 14 16 18 19 21 22 23 23 23 24 25 24 21 12 17 30 33 34 35 35
3 6 6 7 6 4 3 3 0 3 3 2 2 1 2 3 3 1 2 2 3 4 4 5 6 6 5 5 6 7 8 8 8 9 9 10 11 12 11 11 11 12 14 16 19 22 22 23 24 22 22 24 25 25 24 22 18 10 17 26 30 33 34
2 4 5 5 3 4 4 5 3 3 3 3 3 2 2 2 3 3 3 3 4 4 3 4 5 6 3 3 6 9 9 9 9 9 9 9 10 10 10 10 10 13 16 19 21 24 26 29 28 25 25 27 27 26 25 21 19 16 9 12 20 26 31
0 2 2 1 4 5 7 8 6 2 3 3 3 0 3 2 2 2 1 1 3 3 4 3 3 7 6 1 4 8 9 10 10 9 9 9 8 7 9 10 11 14 17 19 21 23 25 29 28 26 27 29 27 25 23 19 18 18 14 8 8 15 23
1 1 2 2 4 7 7 5 3 2 2 2 1 2 4 3 1 1 1 1 3 3 4 5 5 7 5 3 2 5 9 10 10 10 10 10 10 11 12 12 13 15 17 19 21 22 25 27 26 26 27 28 27 25 21 17 18 18 16 13 9 7 11
2 1 2 3 3 4 3 2 3 4 3 3 2 2 3 2 2 2 1 2 3 3 3 6 7 6 2 3 3 4 9 9 9 10 12 13 14 15 16 16 16 16 17 18 19 21 24 25 26 27 27 26 26 24 19 16 17 17 16 15 14 12 10
1 2 2 2 2 4 4 3 4 5 4 4 3 3 2 1 2 3 2 2 4 3 3 5 5 5 2 2 3 5 9 9 8 9 11 14 16 17 17 18 18 18 18 18 18 20 22 24 27 27 26 24 22 20 19 18 17 16 15 15 15 15 14
2 3 3 3 2 3 4 3 5 6 4 3 2 2 2 2 4 4 3 4 4 3 3 4 3 2 2 4 5 6 8 9 9 10 11 14 16 18 18 19 19 19 19 18 18 19 21 24 26 27 25 23 20 18 19 19 17 17 17 17 17 18 18
4 4 3 3 3 3 3 3 5 6 3 1 1 3 2 2 5 5 3 4 5 3 2 1 0 2 4 6 7 7 8 9 9 11 14 16 17 19 20 21 20 19 20 19 19 20 21 23 24 24 24 24 23 21 19 18 18 19 19 19 19 19 19
2 3 3 4 4 2 2 3 4 3 1 2 3 3 1 2 5 5 3 4 5 4 3 3 3 4 6 7 8 8 8 8 8 10 12 15 17 20 22 22 21 20 20 20 20 22 24 24 23 22 21 21 22 23 21 19 21 22 22 21 20 20 20
2 2 3 3 3 2 2 1 2 1 3 2 2 3 2 2 3 4 3 4 4 5 6 5 5 5 6 8 9 8 7 8 9 11 12 13 15 19 21 22 22 21 21 21 20 22 25 26 24 22 20 19 20 21 22 22 24 24 23 22 21 20 21
3 3 4 4 3 4 3 1 1 3 3 2 1 2 3 2 3 3 3 4 5 6 7 8 7 6 6 7 8 9 8 7 9 12 14 14 15 17 19 22 23 22 22 23 23 24 25 26 25 22 21 20 19 20 23 25 26 24 23 22 20 20 21
3 4 6 5 3 3 3 3 4 5 5 3 2 2 3 3 3 3 3 5 6 6 7 9 9 6 5 6 7 8 9 8 8 12 15 17 17 18 19 21 22 23 24 26 26 26 26 27 26 24 22 21 21 22 25 26 26 25 23 21 19 18 20
3 4 6 5 4 4 4 4 4 4 4 4 3 2 3 3 4 4 4 5 6 6 6 8 9 8 7 6 7 8 9 9 10 13 16 18 19 19 19 20 21 23 26 27 28 27 28 28 27 26 25 24 23 26 27 27 25 24 22 20 18 17 17
2 4 4 3 4 4 4 4 4 4 4 4 3 3 4 5 5 5 6 6 6 6 6 7 10 11 10 8 8 8 8 9 10 12 14 18 20 21 20 20 22 23 23 25 26 27 29 30 28 27 28 28 28 29 29 27 26 23 21 19 19 17 17
3 5 6 5 4 4 4 4 5 5 4 5 5 4 5 5 5 6 7 7 6 5 6 7 10 13 12 10 9 8 8 9 10 11 14 18 21 23 23 22 22 21 21 23 25 27 29 31 30 28 28 30 31 31 30 28 26 23 21 20 20 19 18
3 7 7 5 5 6 6 5 6 6 5 5 6 6 5 6 6 7 8 9 8 7 8 8 9 13 14 11 10 10 9 9 11 13 16 19 22 25 25 23 22 22 21 23 25 27 29 31 31 30 29 30 31 32 31 29 27 24 21 21 21 20 19
4 7 6 4 2 5 5 5 7 7 7 6 6 6 6 6 7 7 8 10 11 11 12 11 10 12 14 13 11 11 10 11 14 17 18 19 22 26 26 24 23 23 23 24 25 27 29 30 30 30 31 31 31 31 31 29 27 24 22 21 21 20 18
6 8 7 6 4 5 6 6 7 7 6 5 6 7 7 7 7 7 8 10 12 12 14 15 14 12 13 16 15 12 11 15 19 21 20 20 23 26 28 25 23 23 24 24 24 25 27 29 29 30 33 33 32 32 31 29 27 26 24 23 22 20 18
7 7 7 7 6 6 6 7 7 7 6 6 6 7 6 6 8 9 8 10 13 12 12 15 17 16 16 19 18 14 14 18 22 23 24 23 24 26 27 25 22 22 23 23 24 24 26 28 29 30 31 32 33 33 31 28 27 27 25 24 23 21 19
7 6 5 6 7 7 7 5 5 6 8 7 6 5 6 7 10 12 11 11 14 15 12 13 18 20 20 21 21 19 18 20 22 24 25 25 23 24 26 24 23 22 23 24 26 26 26 28 29 28 28 30 32 32 30 28 27 27 26 25 24 21 18

ECMWFFLT2_925_spd_069.txt.gz
Wind_Speed
3 6 2 1 1 2 4 5 6 3 0 0 1 2 2 0 5 4 2 4 6 5 5 7 9 10 13 14 15 16 16 15 14 12 12 11 10 10 9 8 10 15 19 22 24 25 25 26 27 27 27 29 32 31 32 34 34 34 35 36 36 36 35
5 7 1 4 7 3 3 5 5 4 2 1 0 3 3 5 7 3 3 6 5 2 2 6 10 12 14 15 14 15 15 15 14 13 13 13 13 11 10 10 9 12 17 22 25 24 23 25 27 28 29 30 33 33 32 33 32 32 34 36 35 35 35
3 6 1 3 7 7 2 1 2 2 2 3 2 2 5 8 7 4 4 6 4 3 2 6 10 12 13 13 13 13 15 16 14 13 14 14 14 13 11 10 8 9 14 19 21 22 22 24 24 25 27 29 30 30 30 31 32 34 36 35 32 34 36
2 4 4 2 5 5 1 1 1 1 1 2 2 1 2 5 5 5 5 4 3 4 4 6 8 11 12 12 12 12 14 14 13 13 14 14 14 13 12 12 10 5 11 17 21 22 21 22 23 24 26 27 27 28 28 28 29 31 32 30 29 32 33
0 2 6 5 5 5 2 1 2 2 2 1 2 1 2 1 4 5 6 5 4 3 5 6 8 9 10 11 11 10 11 13 13 13 14 13 14 14 14 14 13 10 4 5 14 21 23 22 22 22 23 25 25 25 26 26 26 26 27 26 26 28 29
4 5 3 4 6 7 6 4 3 2 2 1 4 4 1 1 0 2 4 5 4 3 5 7 9 8 9 10 11 9 10 12 13 13 14 14 14 15 15 15 14 15 16 14 8 3 11 17 20 22 21 22 23 23 22 23 24 24 26 25 24 26 27
4 5 3 3 4 4 5 7 5 3 2 2 2 4 3 2 1 1 2 4 4 3 5 6 7 8 8 9 10 10 10 12 12 13 14 14 14 15 15 15 15 16 19 20 21 19 14 6 7 18 21 20 21 18 14 16 17 18 20 19 20 24 27
1 4 4 1 3 1 2 6 7 5 3 2 2 1 1 2 2 1 2 4 4 3 5 6 6 7 7 8 10 10 10 10 11 13 14 13 14 15 16 15 16 19 22 22 22 22 21 20 13 1 11 19 23 22 22 22 17 16 18 17 16 19 23
3 4 5 3 1 3 3 4 7 8 7 4 1 1 0 2 2 1 2 4 5 5 5 5 6 7 8 9 9 10 10 10 11 11 12 12 13 14 16 17 17 19 21 21 21 20 19 20 21 17 7 10 22 29 31 29 24 24 28 25 20 20 22
3 2 2 2 1 2 2 3 6 8 9 8 2 1 1 2 2 1 1 4 7 7 5 6 6 7 8 9 9 9 10 10 11 11 11 12 12 13 15 16 16 17 18 20 21 21 21 20 20 20 18 8 7 19 24 24 24 29 33 29 24 23 23
2 3 3 2 1 2 2 4 7 7 8 8 3 0 1 2 5 3 4 5 10 8 5 5 5 6 7 8 8 9 9 10 11 11 11 12 12 12 13 13 14 15 17 20 22 22 21 21 20 19 19 18 11 2 7 12 18 24 28 26 23 23 24
6 5 5 2 1 3 3 4 5 5 7 8 5 4 3 0 2 4 3 5 9 7 4 4 4 5 6 7 8 8 9 9 10 10 11 13 13 13 14 14 16 16 15 17 21 22 21 21 21 20 19 18 17 13 8 1 7 14 19 23 23 22 23
6 5 5 3 2 3 1 2 3 4 6 6 5 5 3 3 2 6 6 6 7 6 4 4 4 4 5 6 7 7 8 9 10 11 12 14 15 15 16 16 16 15 14 15 18 20 21 21 22 21 20 19 18 16 14 10 5 2 11 20 24 25 24
6 4 3 3 3 3 2 2 3 3 3 3 2 2 2 2 3 6 7 8 7 6 4 4 4 3 4 4 5 7 9 11 11 12 13 13 14 14 15 15 15 14 14 16 17 19 20 21 22 21 20 20 18 17 15 14 12 8 3 9 18 24 26
4 3 3 3 4 4 2 3 4 2 1 3 2 2 1 0 2 5 9 9 7 4 3 5 4 3 3 4 6 8 9 11 12 13 13 13 13 14 14 14 14 14 15 17 19 20 21 21 21 20 19 19 18 17 16 15 14 12 9 6 7 15 22
3 1 3 4 3 1 3 5 6 6 4 4 4 4 3 1 2 6 8 7 5 5 5 5 4 3 3 4 6 7 7 10 11 12 13 13 13 13 13 13 14 14 15 17 19 20 21 21 21 20 19 19 19 19 18 17 15 14 11 9 7 6 12
3 1 3 4 1 3 4 4 5 5 4 4 4 5 5 3 1 2 3 4 6 7 6 5 4 2 2 3 4 5 6 8 9 10 11 12 13 13 13 13 13 14 15 16 18 19 19 19 20 19 19 19 19 20 21 19 15 15 14 10 8 7 6
3 1 2 2 3 3 3 4 3 3 3 2 1 2 3 2 1 2 5 6 6 6 4 4 3 1 1 1 2 4 5 6 7 9 10 11 11 12 12 12 13 14 16 17 17 18 18 18 19 18 18 19 18 20 22 19 15 16 17 13 10 10 8
2 1 1 3 3 1 3 2 2 2 1 1 2 1 2 2 1 4 7 7 5 4 3 3 2 2 1 2 3 4 6 6 7 8 8 10 11 11 11 12 14 16 17 18 19 19 18 18 18 18 19 20 20 20 19 17 17 18 17 13 12 12 11
1 2 3 3 0 2 1 1 1 1 2 1 2 2 4 4 1 2 5 6 5 4 3 2 2 4 2 4 5 3 5 7 7 8 8 9 10 11 11 13 15 16 17 17 19 20 19 18 17 18 19 20 21 21 18 16 19 20 16 12 13 14 14
1 1 1 0 1 1 3 2 2 1 2 2 0 1 3 4 2 2 3 4 4 3 2 2 3 4 2 5 5 3 4 8 8 8 9 9 9 11 12 13 15 16 16 17 17 18 19 18 17 17 19 19 19 20 18 16 18 18 14 13 13 15 15
1 1 1 1 2 3 4 5 4 2 1 2 1 1 1 3 2 2 3 3 3 2 2 4 5 4 3 4 4 3 4 8 8 9 10 10 11 11 12 14 15 16 17 17 17 17 17 18 17 18 20 19 18 18 18 17 17 15 12 13 15 15 16
2 2 1 2 3 1 3 6 6 4 3 3 2 3 2 3 3 2 3 3 3 2 3 5 5 3 3 2 3 3 8 11 10 10 10 11 12 12 13 14 15 16 17 17 17 16 16 17 19 19 19 19 17 16 16 17 17 15 13 13 15 17 18
2 2 2 2 2 0 3 6 7 5 4 4 3 3 2 5 4 2 3 2 2 2 3 4 3 2 3 3 3 6 10 12 11 12 12 12 13 13 13 14 15 16 17 16 17 17 16 16 18 19 19 18 17 16 16 16 16 16 15 16 16 17 19
2 3 2 2 2 1 4 7 7 6 5 5 3 1 3 6 5 3 3 2 1 1 1 2 2 2 3 6 8 10 11 11 12 13 13 14 15 15 15 15 15 16 16 16 16 17 17 16 16 17 18 17 17 17 16 16 15 15 17 18 18 17 18
1 2 2 3 3 1 5 7 6 5 4 3 1 2 4 6 6 5 4 3 2 3 3 3 4 5 6 8 9 10 10 11 12 14 15 15 16 17 17 15 14 15 17 17 18 17 17 16 15 15 16 17 18 18 17 17 17 17 18 19 19 19 18
1 1 2 2 2 2 8 9 6 4 4 1 3 4 4 5 5 5 5 4 3 3 4 5 6 7 8 9 9 10 10 10 12 14 15 16 17 19 19 18 16 16 17 19 20 19 17 16 15 14 15 16 16 16 18 20 19 19 19 18 19 19 19
3 3 4 2 1 2 7 7 4 3 3 3 4 4 3 5 6 5 4 4 5 5 5 6 7 7 8 9 9 10 10 10 12 14 15 16 18 18 20 21 19 17 17 19 21 21 18 16 15 14 14 15 16 16 18 21 21 20 20 20 18 18 18
4 3 2 1 2 1 5 4 1 4 5 4 4 3 3 4 5 5 4 5 5 6 6 7 7 7 8 9 10 10 11 11 13 14 15 17 18 18 19 21 21 19 18 19 21 23 21 18 16 15 13 14 17 18 18 20 21 21 20 20 20 18 17
3 5 5 4 3 4 6 6 3 3 3 2 3 4 4 4 4 5 5 5 5 5 6 6 6 7 8 8 10 11 11 12 14 16 17 17 18 19 19 19 20 20 20 20 20 23 23 20 17 15 14 14 17 20 20 19 20 20 19 20 20 19 18
3 4 4 6 7 7 7 7 6 5 5 4 4 5 5 4 4 5 6 6 6 5 6 7 8 9 9 9 10 10 10 12 15 17 18 18 18 19 19 19 20 20 20 21 21 22 24 22 17 15 15 16 17 19 20 20 20 19 18 18 19 19 19
5 4 1 2 4 5 6 6 6 6 7 6 6 7 6 5 5 6 7 6 6 5 6 7 9 10 10 10 11 11 11 12 14 17 18 19 19 20 19 20 20 20 20 21 22 23 25 24 19 16 17 18 18 19 20 20 20 19 18 18 18 18 19
6 7 7 6 5 6 8 10 9 8 7 6 7 7 6 6 7 7 7 7 7 7 7 8 9 10 10 11 12 12 12 13 15 18 20 20 20 20 20 21 22 22 21 22 23 25 26 26 23 19 19 19 19 19 19 19 18 18 19 19 18 18 18
6 6 6 7 5 6 6 8 10 10 9 7 7 7 6 7 8 7 8 8 8 8 9 9 9 9 9 11 13 14 13 15 18 20 21 21 22 23 23 23 24 24 24 24 25 26 27 27 25 22 20 20 18 17 17 17 17 18 19 19 19 18 16
7 7 5 6 5 6 4 4 6 7 7 7 8 8 7 8 8 7 7 7 7 8 9 10 10 10 10 13 15 15 15 18 21 22 22 23 24 25 25 25 25 26 26 25 26 27 27 27 26 25 22 20 19 17 16 17 17 19 19 19 19 18 16
8 9 7 5 6 7 4 2 4 5 5 7 8 8 7 7 7 7 7 7 8 8 8 9 11 12 13 15 15 16 18 21 23 25 26 26 27 27 26 25 25 25 25 26 27 28 27 27 27 26 24 23 20 18 17 18 18 19 19 18 18 18 18
9 8 3 5 8 8 2 1 2 4 6 7 7 7 7 7 7 7 7 7 9 9 8 9 12 13 14 16 17 19 21 23 25 26 27 27 27 26 26 25 25 25 26 26 26 27 27 27 28 28 28 26 23 20 19 19 19 20 20 19 19 20 20

ECMWFFLT2_925_spd_075.txt.gz
Wind_Speed
11 14 12 9 9 6 7 9 11 9 10 10 8 9 10 10 9 9 8 6 8 7 8 9 11 12 10 8 9 8 8 8 7 6 5 4 4 6 6 7 9 9 9 8 9 11 12 12 14 17 18 17 18 21 23 22 21 21 21 21 21 21 21
9 7 7 10 13 10 5 8 9 9 11 10 7 6 9 11 10 9 12 12 9 8 7 8 12 12 10 9 9 8 8 8 6 6 5 4 3 3 5 7 8 8 10 13 13 14 12 12 14 16 17 17 15 16 19 21 21 21 20 20 21 21 21
9 7 7 9 13 15 10 6 5 8 11 9 6 6 8 11 11 9 12 14 10 7 7 10 11 10 10 8 8 7 8 8 6 6 6 6 6 3 3 6 6 3 8 14 16 15 13 12 11 11 11 14 14 13 15 16 19 21 20 19 21 22 21
9 9 10 9 10 14 13 9 8 9 9 8 7 7 8 9 11 9 10 11 6 3 5 9 10 9 9 8 7 7 8 8 7 7 8 9 9 7 5 6 7 7 2 6 12 14 12 11 12 11 9 10 13 15 17 17 19 22 22 22 23 23 21
8 8 8 6 5 9 11 9 8 8 7 7 8 10 9 8 9 8 9 9 5 5 4 7 10 8 7 8 7 6 8 9 9 9 10 10 10 10 9 7 7 9 10 7 6 10 9 7 11 16 15 11 12 15 17 21 22 22 23 23 22 21 20
7 5 4 2 4 4 6 8 9 10 9 8 9 11 11 9 9 8 7 7 7 4 2 6 9 7 7 8 8 8 8 9 10 10 11 11 10 10 9 8 7 8 10 12 11 7 5 4 6 14 18 15 15 19 21 21 22 20 20 20 19 16 15
3 6 5 3 6 7 5 5 7 9 11 11 10 11 10 10 12 8 3 7 6 4 5 7 8 7 8 8 8 9 8 9 10 10 11 11 11 10 9 8 7 8 9 12 15 15 14 13 12 2 11 15 14 20 22 16 15 17 17 17 16 15 15
4 6 2 4 5 6 6 6 6 6 8 10 9 7 6 8 12 10 5 7 5 5 6 8 8 9 9 8 9 9 8 9 10 10 11 11 11 11 10 9 9 10 13 15 16 17 17 18 21 18 2 9 6 8 13 11 11 13 13 14 15 15 15
4 3 4 6 5 6 8 8 5 5 8 9 7 5 5 6 10 11 6 5 6 8 9 9 10 10 10 9 10 9 8 8 9 9 9 10 10 11 12 12 12 13 15 16 16 16 17 16 17 18 10 3 6 6 6 9 12 14 13 12 12 13 15
6 4 4 5 7 8 8 7 4 5 9 10 7 6 6 7 8 7 1 6 9 11 12 11 12 11 11 10 10 10 9 9 9 9 9 9 10 11 12 13 13 13 14 16 17 17 17 16 15 14 13 12 11 10 7 2 7 12 12 11 10 12 15
1 1 3 4 4 10 10 7 5 6 8 8 8 9 8 6 6 3 6 13 15 15 14 13 13 12 11 10 10 10 9 9 10 10 9 10 10 11 12 12 12 13 13 15 18 18 17 17 16 15 14 16 17 15 13 8 3 3 5 8 9 12 14
4 4 4 6 3 5 6 5 5 5 5 6 10 11 6 4 5 4 10 17 18 17 16 15 13 12 11 10 9 8 8 9 10 9 10 12 12 12 12 12 13 13 13 14 16 17 18 17 17 17 16 16 17 17 16 13 10 9 7 4 5 9 13
2 3 3 4 3 2 2 1 2 2 3 7 10 8 5 7 6 5 12 16 16 16 17 16 14 12 11 10 9 8 8 9 9 10 11 12 12 13 13 13 13 13 13 14 15 17 17 18 18 17 17 17 17 16 16 14 13 13 11 9 9 8 10
2 1 1 2 2 1 3 2 1 1 2 2 3 3 3 6 4 12 16 15 14 15 15 15 13 11 10 9 8 8 8 9 9 10 11 11 12 12 13 12 12 12 12 14 15 16 16 17 17 17 16 17 16 15 15 13 13 13 12 8 8 10 9
4 2 2 3 3 4 5 4 3 4 3 2 2 2 1 3 7 14 18 16 13 12 14 14 13 12 11 10 9 7 7 8 9 10 10 11 11 12 12 12 11 11 12 14 14 14 15 16 16 16 15 15 15 15 15 13 12 12 11 9 6 8 10
4 3 4 4 4 5 7 6 7 7 6 5 3 1 1 4 9 14 16 13 10 11 13 13 12 12 12 11 10 8 7 7 8 9 10 10 10 11 11 11 11 11 12 13 15 15 15 15 15 15 14 14 14 14 14 14 14 13 11 10 9 6 7
4 5 4 3 4 7 8 6 7 8 7 4 4 3 2 1 7 10 10 10 11 12 13 12 12 13 12 9 8 7 6 6 7 9 9 9 10 10 10 10 11 11 12 13 15 15 15 15 15 14 14 14 13 13 13 12 12 13 12 11 11 10 8
5 6 3 4 7 7 3 3 4 1 3 4 4 4 5 5 3 3 6 11 15 13 12 12 12 12 11 9 7 5 5 5 6 8 8 8 9 9 9 10 10 11 12 12 14 15 14 14 14 13 14 14 12 12 12 10 11 12 13 11 11 12 12
5 5 5 7 8 4 4 6 6 6 4 3 5 6 6 6 7 10 12 15 16 13 13 12 10 10 11 10 7 5 6 5 5 6 7 7 8 8 8 9 9 10 11 12 14 13 13 13 12 13 14 14 13 13 12 11 11 11 11 10 10 12 13
5 4 6 6 3 4 6 5 3 3 3 4 6 6 4 4 7 10 12 13 12 12 12 12 9 8 10 8 5 5 6 4 5 6 6 6 7 7 8 8 9 9 9 11 13 13 12 12 11 12 14 14 14 14 13 12 12 11 10 9 9 11 13
5 6 7 4 4 4 4 4 3 2 3 5 4 3 5 5 4 7 10 11 9 10 9 9 7 7 8 7 6 5 5 5 5 5 6 6 6 6 7 8 8 8 9 11 12 12 11 11 11 12 13 14 14 13 13 14 13 12 11 10 9 10 13
4 6 6 6 6 5 5 7 7 3 1 1 2 2 5 6 3 5 10 10 9 9 8 8 8 7 8 8 7 7 6 4 4 4 5 5 5 6 6 7 8 8 10 12 12 11 11 11 11 13 14 13 13 12 13 14 14 13 12 12 11 11 13
5 6 7 7 6 3 5 9 7 5 2 1 2 5 7 8 6 6 8 10 10 9 8 8 7 7 7 5 6 9 7 3 3 4 4 5 6 6 6 7 8 9 10 11 11 10 11 11 12 13 13 12 12 12 12 13 13 13 12 12 13 13 13
5 6 6 5 2 3 8 9 7 6 3 1 5 7 6 8 9 7 7 9 9 7 6 6 5 6 3 3 5 6 5 3 3 4 6 7 8 8 8 9 10 10 10 10 10 11 11 12 13 13 13 12 12 12 12 13 13 12 12 12 12 13 13
6 6 7 4 1 6 9 9 7 6 4 4 6 4 4 7 8 7 6 8 8 6 5 4 4 1 5 6 4 3 2 2 3 4 5 6 8 10 11 13 14 13 11 10 11 12 12 12 13 13 12 12 12 12 13 13 13 13 14 13 13 13 13
6 5 6 6 2 5 7 9 8 5 4 3 3 4 6 6 7 6 5 5 7 6 3 2 2 1 4 3 2 2 2 3 4 4 5 5 7 8 9 11 12 13 14 14 14 14 13 13 13 13 13 13 13 13 13 14 14 15 15 14 14 14 13
6 5 6 7 3 5 8 9 7 4 3 1 4 6 6 6 7 6 3 2 4 4 3 2 2 2 2 3 3 3 4 3 3 3 4 5 6 7 8 10 10 11 13 15 16 16 15 15 14 14 14 15 14 14 14 15 15 16 15 15 15 15 15
5 5 4 3 1 6 8 5 2 2 4 4 5 5 5 5 5 5 3 3 3 3 3 2 2 2 2 3 4 4 4 4 4 4 5 5 6 7 9 10 11 12 13 14 16 17 17 16 16 15 15 15 15 16 16 16 15 15 15 15 16 16 16
5 4 1 2 2 6 7 2 2 6 8 7 4 3 4 5 4 3 3 4 5 4 3 2 2 2 2 3 4 4 4 5 5 6 6 7 7 8 8 9 10 11 13 14 16 18 18 18 17 17 16 16 17 18 17 16 15 15 15 16 16 16 16
5 5 3 2 2 4 6 4 4 6 6 6 4 2 2 4 4 3 2 3 4 5 3 3 3 3 2 2 4 4 5 6 7 7 8 8 8 8 8 9 9 11 13 14 15 17 18 18 18 17 16 17 18 18 18 17 17 17 17 17 17 17 17
5 4 4 6 5 5 6 5 5 5 5 4 3 4 3 3 4 4 3 2 3 3 4 4 4 3 2 3 4 4 4 6 7 9 9 10 10 11 11 11 11 11 12 13 14 16 17 17 17 17 17 17 18 18 18 19 19 19 18 18 18 18 18
7 4 1 2 4 5 6 6 5 6 7 5 4 4 4 4 4 4 4 4 4 4 4 5 5 4 4 4 4 4 5 5 6 8 10 11 12 13 14 14 14 13 12 12 13 15 16 17 17 18 19 19 19 20 20 19 20 20 20 20 20 20 19
8 8 5 5 6 6 7 8 8 7 7 7 7 7 6 6 6 6 6 6 5 5 5 5 5 5 5 4 5 5 5 5 7 8 10 11 13 15 16 16 16 15 15 15 15 16 16 16 17 18 19 20 21 21 21 20 19 20 20 20 21 21 20
7 6 5 4 6 6 6 7 9 9 8 9 9 9 8 8 8 7 7 7 7 7 6 5 5 5 5 5 6 6 6 7 8 9 10 12 14 15 16 16 17 17 18 18 18 17 17 16 17 18 19 20 21 21 21 20 20 20 21 21 21 21 20
5 4 5 4 3 5 5 4 6 8 8 9 10 9 9 9 9 8 7 7 7 7 7 7 7 6 6 7 7 7 8 9 10 10 12 13 14 15 16 17 18 19 20 20 20 20 19 18 18 18 18 19 19 20 20 20 20 21 21 21 21 21 20
6 6 7 6 5 7 6 5 6 7 7 8 9 9 10 10 10 9 8 7 7 6 6 7 7 6 6 8 9 9 9 10 11 12 13 14 15 16 17 17 18 19 20 20 21 21 20 19 19 19 19 19 19 19 20 20 21 22 22 22 23 22 21
9 9 9 8 8 9 7 7 8 8 8 8 8 9 10 11 11 11 9 8 8 7 7 7 8 8 8 9 10 10 10 11 12 14 15 16 16 17 17 18 19 19 20 21 21 21 22 22 22 22 22 21 21 21 22 22 22 23 24 25 25 25 24

ECMWFFLT2_925_spd_078.txt.gz
Wind_Speed
9 14 14 9 7 6 6 9 10 8 9 9 7 6 9 9 9 6 6 9 9 10 10 10 12 13 11 10 11 12 13 14 10 5 5 4 2 2 4 5 5 5 8 8 7 7 4 5 10 11 6 3 7 14 20 21 19 19 21 22 21 20 20
7 13 16 10 8 7 5 8 10 9 10 11 6 5 8 9 9 6 11 15 12 10 8 10 14 15 13 11 10 10 11 12 10 8 7 4 4 2 2 4 5 7 9 9 9 9 7 8 11 14 13 8 9 14 16 17 18 18 20 20 19 19 20
7 8 11 10 11 14 10 5 5 6 8 8 6 5 6 7 8 6 12 16 12 9 9 13 15 14 14 12 11 10 9 9 8 8 8 6 8 8 3 5 5 7 9 9 8 8 8 10 12 16 18 17 19 19 17 20 21 17 18 18 17 19 20
8 7 7 7 8 11 10 7 6 6 6 6 7 6 5 5 7 6 7 8 5 5 7 13 14 13 13 13 11 10 9 8 7 6 6 6 8 9 6 9 6 6 9 8 6 8 9 12 15 17 16 15 17 18 19 23 20 16 17 16 15 17 18
8 6 7 9 9 9 8 6 6 6 6 6 7 7 7 6 5 4 5 5 3 3 4 11 14 12 12 12 12 10 9 9 7 5 5 6 6 9 8 9 8 3 3 5 4 5 7 11 16 20 17 16 15 17 21 21 17 18 19 14 12 14 14
7 8 11 12 10 9 9 8 8 8 8 7 7 7 9 8 6 3 4 7 5 2 5 10 12 12 12 12 12 10 9 10 8 5 4 3 4 8 10 11 11 10 10 8 4 3 2 6 13 20 17 12 10 13 17 17 15 18 19 16 16 14 14
4 7 12 10 5 6 7 7 8 8 8 8 8 8 7 9 9 2 5 7 5 3 5 9 11 12 12 12 12 11 10 10 9 7 6 4 6 8 10 10 10 11 12 12 11 10 10 7 9 16 15 10 8 9 11 13 13 15 17 18 21 18 16
1 4 6 4 5 5 6 7 8 9 10 9 8 5 1 4 10 4 5 5 5 4 6 9 11 12 12 11 11 11 10 9 9 9 8 7 8 10 10 10 10 11 11 12 13 13 15 16 14 13 13 10 7 6 9 11 12 13 16 19 22 23 20
5 5 3 3 7 6 6 8 8 10 11 8 7 7 3 3 6 2 5 4 5 6 7 9 11 12 13 11 10 11 10 9 8 9 10 9 8 8 9 9 9 11 12 12 14 14 14 16 17 16 14 12 8 5 7 9 8 9 11 14 17 20 19
4 3 2 3 5 6 7 9 11 13 13 8 8 6 2 5 5 4 7 6 7 8 9 10 11 12 12 11 10 10 10 10 9 9 9 9 9 9 10 10 9 10 12 13 15 15 14 14 15 16 16 14 11 8 5 4 6 7 8 9 9 12 13
3 2 3 7 6 6 10 10 12 13 9 7 7 5 4 3 1 3 8 13 14 12 11 11 12 12 12 12 11 10 10 10 9 9 9 9 9 10 10 10 10 11 12 14 15 16 16 15 14 15 15 13 12 12 11 7 3 3 1 3 6 10 12
5 5 5 8 9 7 9 15 17 12 7 8 10 7 4 1 3 3 8 15 16 15 14 14 14 12 12 11 11 11 11 11 10 10 10 11 11 11 11 11 11 12 11 12 15 16 16 16 15 15 14 12 10 10 11 12 9 7 8 7 5 8 10
8 5 8 8 8 12 8 10 12 7 6 11 11 9 11 9 1 7 11 12 12 14 15 15 14 13 12 10 9 10 11 10 10 11 11 12 12 12 12 12 12 12 11 12 14 16 16 16 16 15 13 12 10 9 10 13 12 9 10 10 8 7 8
6 5 7 8 7 11 9 1 2 3 5 10 11 12 15 10 6 14 15 13 11 11 13 14 13 12 11 9 8 10 12 10 9 10 11 12 12 12 13 13 12 12 12 13 15 16 16 17 16 15 13 12 12 11 11 12 12 12 11 10 10 10 9
4 4 5 7 7 8 9 4 2 2 7 8 7 8 10 4 7 12 13 13 10 8 11 13 11 10 11 9 7 9 10 9 8 10 11 11 12 12 12 12 12 12 13 14 15 15 16 16 16 15 14 13 13 13 13 12 12 13 11 8 9 12 13
6 5 5 7 8 7 10 10 5 5 8 8 5 4 5 5 6 11 11 10 7 8 13 14 11 11 11 10 9 8 8 7 8 9 9 10 11 11 11 11 11 12 13 13 14 15 15 15 15 14 13 12 12 12 12 13 13 13 12 9 9 13 15
7 8 7 5 5 5 8 8 6 8 10 8 7 4 2 6 4 9 10 7 8 12 14 14 12 12 11 10 9 8 6 6 7 8 9 9 10 11 11 11 11 11 13 13 14 14 14 14 14 14 12 12 12 10 9 10 11 11 11 10 11 14 15
6 11 9 5 4 6 3 3 7 6 7 10 9 4 2 5 3 8 10 9 12 13 13 13 13 12 11 10 10 9 7 5 5 7 8 9 9 10 10 10 10 11 13 13 13 13 13 13 13 13 12 11 10 9 9 10 9 9 8 9 12 15 16
6 7 6 7 7 4 2 7 9 9 5 1 1 4 4 3 7 15 16 14 14 13 13 13 13 14 13 12 11 9 7 5 5 5 6 7 8 9 9 9 10 11 12 13 12 11 11 11 12 12 12 11 10 10 10 11 10 9 7 9 12 14 15
5 4 6 6 3 1 4 5 5 6 6 4 5 5 3 3 7 12 16 15 14 12 12 13 13 14 13 10 9 8 6 4 5 6 5 6 7 8 8 9 10 11 12 12 11 9 9 10 11 11 10 10 10 9 10 11 11 10 9 10 12 12 13
5 7 7 4 1 1 1 2 2 3 2 2 1 1 2 4 5 9 12 13 13 12 12 13 14 14 11 7 6 7 6 4 5 7 7 6 7 7 8 9 10 11 11 11 10 9 8 10 11 10 9 8 8 8 9 10 10 10 11 11 11 10 10
4 6 7 5 4 5 4 5 5 3 4 5 3 1 3 3 5 9 12 12 13 12 11 12 13 13 11 7 5 7 8 5 5 7 8 7 7 8 8 9 10 11 11 10 9 8 8 10 11 10 9 8 8 8 8 9 9 9 9 10 10 9 9
5 5 6 6 5 2 2 6 6 4 5 6 3 4 5 4 5 9 11 12 13 14 13 12 11 9 7 6 7 9 9 7 6 6 6 7 7 7 8 10 10 10 9 8 8 8 9 11 11 10 9 9 8 8 8 8 8 8 8 9 8 8 8
5 5 6 5 1 3 5 6 5 4 4 3 1 5 5 7 8 8 8 10 10 10 9 9 7 4 2 2 7 10 9 8 8 5 4 6 6 6 9 11 9 8 8 8 9 10 11 11 11 10 9 9 9 9 9 8 8 8 8 8 7 7 8
7 6 6 4 2 5 5 5 5 4 3 3 5 3 2 6 8 6 6 8 8 6 5 4 4 6 6 5 6 9 8 7 7 4 5 6 6 6 8 9 8 7 8 9 10 11 11 11 11 10 10 10 9 9 8 8 8 9 9 8 8 7 8
6 5 6 4 2 4 5 5 4 2 3 3 3 2 2 3 6 5 3 5 6 6 5 5 6 8 8 6 5 7 6 5 4 3 5 6 5 7 7 7 8 8 9 9 10 10 11 11 11 11 11 11 10 9 8 8 9 9 9 8 8 8 8
5 6 6 4 1 4 6 5 3 2 2 1 3 4 4 5 5 4 4 4 4 6 5 5 6 7 7 6 5 5 4 4 3 3 5 6 6 7 8 8 10 10 10 10 10 11 11 11 11 11 11 11 10 9 9 9 9 9 9 9 9 8 9
4 5 4 2 1 5 6 4 2 3 4 4 3 4 6 6 4 3 5 6 5 6 5 4 4 5 5 4 4 3 2 3 3 4 5 6 6 8 8 9 11 11 11 12 12 12 12 12 13 12 12 11 10 10 10 11 11 10 10 10 9 9 9
4 3 0 1 3 5 5 2 4 7 6 5 4 5 6 5 3 2 3 4 6 6 5 4 3 3 3 2 2 2 2 2 3 4 5 5 6 7 8 9 10 11 12 13 14 14 14 14 14 13 13 13 13 12 12 12 12 12 12 11 11 10 11
5 3 3 5 5 5 5 5 6 7 6 5 5 4 5 6 4 2 3 5 6 5 4 3 3 3 3 2 1 1 2 2 3 4 4 5 6 7 7 9 10 11 12 12 13 15 15 16 15 14 14 14 14 14 14 14 14 13 13 13 13 12 12
4 4 5 7 7 6 6 6 6 6 6 6 5 3 3 6 6 4 4 5 7 6 4 3 2 3 4 3 1 1 1 2 2 3 3 5 6 7 8 9 10 11 11 12 13 14 15 16 16 16 16 15 15 15 16 16 15 15 15 14 14 14 14
7 4 3 4 5 6 7 7 7 6 6 6 5 4 3 4 6 7 6 6 6 5 5 4 3 2 3 3 2 1 1 1 1 2 3 4 5 6 8 9 10 10 11 12 13 15 16 16 16 17 17 17 17 17 17 17 17 17 16 16 15 15 15
8 6 4 3 4 5 7 7 7 6 7 6 5 4 4 5 7 7 7 6 5 5 5 5 4 3 2 2 2 1 1 1 2 3 4 4 5 6 7 8 9 9 10 12 13 15 15 16 16 16 17 17 17 17 17 17 17 17 17 17 17 17 16
5 1 3 5 3 4 6 7 8 8 7 8 8 7 7 7 8 8 7 7 6 5 4 4 4 3 2 1 1 1 2 2 3 4 4 5 6 6 7 8 9 10 11 12 13 15 15 15 16 16 16 16 16 16 16 16 17 17 18 18 18 17 17
4 1 2 5 6 5 2 1 5 7 6 8 10 11 11 10 9 9 9 8 7 6 6 6 5 5 5 5 3 2 3 4 4 4 5 6 7 8 9 9 9 10 11 12 13 14 14 15 15 16 16 17 17 17 16 17 17 18 19 19 18 18 17
7 5 3 1 3 6 6 5 5 5 5 8 8 9 11 11 10 10 9 8 8 8 7 7 8 7 6 5 4 4 5 5 5 5 6 7 8 10 11 11 11 11 11 11 13 13 14 15 15 16 17 17 17 18 18 18 19 19 19 19 19 19 19
8 7 5 2 5 7 7 7 7 7 7 9 9 8 9 9 10 10 8 7 9 9 7 6 8 8 6 6 6 7 7 6 6 7 8 9 10 11 12 12 12 12 12 12 13 14 15 16 17 18 18 18 18 18 19 19 20 20 21 21 21 21 21

ECMWFFLT2_925_spd_084.txt.gz
Wind_Speed
6 7 4 5 5 2 2 1 2 5 5 6 3 3 2 5 6 1 1 2 2 1 1 7 5 7 8 8 8 8 8 7 8 7 7 6 4 2 5 4 3 12 18 14 12 12 17 25 30 30 30 32 34 33 34 35 34 34 34 33 32 31 30
8 7 5 4 2 4 3 1 4 4 2 4 3 2 2 5 5 1 2 2 1 0 0 3 2 6 8 8 8 7 7 7 5 4 3 3 4 6 7 6 6 15 18 11 10 14 20 24 27 29 32 34 34 34 34 33 33 33 33 33 32 31 30
6 1 6 2 3 1 4 2 2 0 2 1 0 2 3 3 4 2 2 1 1 0 2 3 2 5 6 7 9 8 7 6 4 4 6 7 9 9 7 7 5 9 15 17 18 20 21 21 22 27 33 34 33 33 34 33 33 34 33 33 32 31 30
2 3 4 3 3 4 1 3 3 1 3 3 2 2 4 5 4 3 2 1 1 2 2 3 4 6 5 4 7 9 8 9 7 6 6 6 7 6 5 7 7 8 12 17 22 22 22 22 23 25 29 31 31 31 32 32 31 31 30 29 29 29 28
1 2 0 5 5 2 1 3 3 1 1 0 2 1 1 5 5 4 4 1 2 3 1 4 7 8 4 2 7 9 8 9 9 7 7 6 6 6 5 6 6 8 11 14 16 17 21 23 21 20 23 26 27 26 28 28 27 26 26 26 26 25 22
1 2 4 4 7 5 4 2 2 2 2 2 2 1 2 3 4 5 5 4 1 3 1 5 9 8 6 6 9 10 8 10 10 9 10 8 7 6 5 4 4 6 9 10 10 10 12 13 13 14 16 21 22 21 21 18 15 18 15 10 11 12 13
3 5 5 2 3 5 4 1 1 1 2 4 4 2 2 3 4 3 4 3 2 2 3 4 9 8 6 7 9 10 9 8 9 10 10 10 9 8 7 6 6 6 5 5 6 7 8 7 9 10 10 13 15 15 14 11 12 15 7 9 9 10 15
4 4 5 7 6 6 4 2 2 2 1 2 5 4 3 3 3 3 4 3 2 1 2 3 8 8 7 8 9 10 9 7 8 9 8 8 9 8 8 7 8 8 6 5 6 7 8 6 6 7 7 8 10 9 8 10 17 18 8 7 10 12 18
5 6 6 8 8 5 2 3 4 3 2 1 3 3 4 3 2 4 5 3 2 3 3 4 8 9 8 8 9 9 9 8 8 7 7 7 8 8 8 8 9 10 9 8 8 8 8 7 6 8 8 8 8 9 10 13 19 17 12 15 15 10 13
2 2 2 2 4 3 2 4 6 6 5 5 3 4 4 2 3 4 5 5 4 4 5 5 7 9 8 8 8 8 8 9 8 7 6 6 7 8 8 8 8 9 10 11 11 12 12 12 10 9 10 10 14 19 18 15 15 14 13 19 17 11 11
4 5 5 4 2 1 3 6 10 9 6 5 4 5 3 4 5 3 1 10 13 9 9 9 8 8 9 8 9 8 7 9 9 7 7 6 7 7 7 8 8 8 10 11 13 15 17 17 14 12 13 14 17 21 19 15 14 16 13 14 14 11 10
2 4 6 5 2 3 4 7 11 11 9 6 5 4 3 7 6 2 3 12 17 13 12 11 9 9 9 8 8 9 8 9 9 8 9 9 8 8 7 8 8 9 8 9 13 16 18 20 19 18 18 17 18 20 17 13 14 18 17 14 13 12 12
5 4 5 5 4 5 7 9 10 11 10 7 4 4 7 7 5 5 9 13 15 14 13 12 10 9 9 9 9 9 9 9 9 10 11 11 10 9 9 8 9 9 8 8 11 15 17 18 20 21 21 19 19 18 14 13 16 19 20 18 16 14 13
7 9 9 7 6 7 9 10 10 10 9 7 5 3 5 5 5 11 14 11 9 7 7 11 11 10 8 8 9 9 9 10 10 10 11 12 11 10 9 9 8 8 9 10 12 15 15 15 17 19 21 21 22 20 17 17 19 19 19 19 17 16 14
6 10 12 11 8 7 9 10 11 10 9 7 7 7 8 9 9 12 14 11 5 2 3 6 8 9 9 9 10 10 9 10 10 11 11 12 12 11 9 9 8 8 9 11 12 14 13 13 13 15 18 20 21 20 19 19 19 19 19 18 17 17 16
4 8 11 11 7 7 10 11 11 9 7 4 2 4 7 10 13 13 12 8 5 3 6 7 5 8 10 9 9 9 8 9 11 11 11 11 11 9 8 8 8 8 8 10 11 13 13 13 14 14 15 17 19 18 17 18 18 20 20 18 17 17 16
4 8 9 7 5 6 7 7 7 6 5 2 3 5 9 14 16 13 9 8 7 9 11 11 10 11 10 8 8 9 9 10 11 11 11 11 10 9 9 8 7 8 9 10 12 11 12 14 14 14 14 16 18 18 17 17 18 20 19 18 17 17 15
2 8 8 5 5 4 1 5 6 4 7 6 6 7 8 10 9 7 7 8 8 8 9 10 11 11 8 7 7 8 9 10 10 10 10 10 10 10 9 8 8 10 10 11 12 14 15 17 17 15 15 15 17 19 19 19 19 19 18 18 17 17 16
1 5 6 6 3 1 2 6 7 5 8 9 9 9 6 5 10 13 13 12 11 9 8 7 9 9 9 9 8 8 8 9 10 10 9 10 11 9 8 6 7 9 11 12 13 14 16 18 18 17 15 15 16 18 19 19 18 18 18 17 17 17 16
0 3 4 2 2 3 4 6 7 5 7 7 8 9 9 6 10 16 14 12 13 15 13 9 9 11 11 10 8 7 8 9 10 10 9 9 9 8 7 7 8 10 12 12 13 12 12 16 18 17 17 16 15 15 16 16 15 15 16 15 15 15 14
1 2 1 1 2 5 6 5 5 4 3 2 3 5 5 7 5 10 14 15 16 17 15 11 9 10 11 9 6 6 8 9 10 11 11 11 11 10 11 12 14 16 14 13 15 15 13 15 16 16 18 19 17 15 15 15 14 13 13 13 13 13 12
2 4 2 3 3 2 4 5 6 5 4 2 4 7 3 5 6 4 7 15 17 16 15 13 10 9 9 7 3 4 8 9 10 12 14 15 15 14 15 17 19 19 17 18 20 19 17 16 15 13 13 17 18 17 15 14 13 13 12 12 11 11 11
2 4 3 0 1 3 5 6 7 8 6 3 5 6 2 1 2 3 1 8 13 15 14 12 10 8 7 5 4 4 7 10 12 12 13 15 16 17 19 21 21 20 21 22 22 21 19 17 14 12 10 12 16 17 15 14 14 14 13 12 11 10 10
1 3 1 1 2 3 4 5 6 8 6 4 6 3 3 3 4 5 5 4 6 10 13 11 8 7 7 7 6 5 8 13 14 14 13 14 17 19 21 22 22 21 22 23 22 21 19 16 13 12 10 10 12 14 14 15 15 15 13 12 10 9 10
0 1 1 2 2 3 4 4 6 7 4 5 4 4 5 3 3 6 8 6 2 4 7 7 5 5 6 9 9 9 12 13 13 15 17 19 20 20 20 21 21 22 22 22 21 19 17 14 13 12 11 12 12 12 13 14 14 13 11 10 10 10 10
1 1 2 1 3 3 3 5 6 5 3 1 3 5 4 3 4 8 10 11 9 7 6 5 6 6 8 12 12 12 14 12 12 15 19 20 20 20 19 19 19 20 20 20 19 17 15 14 13 13 13 14 13 12 12 13 12 10 10 9 9 10 10
0 1 2 1 2 4 5 5 5 5 2 4 5 1 4 4 2 8 9 9 10 9 8 9 10 11 11 12 12 12 12 11 13 17 18 18 18 19 19 18 17 18 19 18 17 17 15 14 13 12 13 13 12 11 11 10 8 8 9 9 9 10 10
1 2 0 2 4 6 3 2 1 1 1 4 4 3 4 5 3 3 6 6 7 9 11 12 12 12 11 11 11 12 11 11 13 17 18 19 19 18 19 18 16 16 18 16 15 15 14 13 12 10 11 12 11 10 9 8 6 7 8 8 8 9 10
2 3 5 5 4 5 3 3 4 2 2 3 4 5 4 4 5 3 4 6 6 9 13 14 12 11 11 11 11 11 10 10 13 16 18 20 20 19 18 17 15 14 15 14 13 12 11 11 11 9 9 9 9 8 8 7 6 7 8 8 8 9 10
2 1 2 2 3 5 4 3 3 3 4 4 4 6 5 3 4 5 6 6 6 6 10 11 10 9 10 11 11 10 10 10 13 18 19 19 20 19 17 15 13 13 13 12 12 10 9 9 9 8 8 8 8 8 8 7 7 8 8 8 9 10 10
1 1 3 5 4 5 3 4 5 5 6 4 4 6 5 4 5 7 7 7 7 6 7 8 9 8 9 11 10 9 9 10 13 17 18 17 18 17 15 14 13 12 12 11 9 8 7 7 7 7 7 8 8 9 9 9 9 9 9 10 10 11 12
1 3 5 6 3 2 3 5 4 5 6 5 5 6 5 5 6 6 7 8 7 6 6 8 9 8 8 10 10 8 7 9 13 16 17 17 17 16 14 14 13 12 11 9 7 6 7 7 7 7 8 8 9 10 10 11 10 10 10 11 11 11 11
2 3 5 5 3 3 5 6 5 5 6 4 5 7 8 8 7 6 6 8 9 9 9 9 10 10 8 9 10 9 7 9 13 16 18 18 17 16 15 15 13 11 8 7 6 7 8 8 7 6 7 8 8 9 10 10 10 10 11 11 10 10 11
3 4 3 1 0 1 3 4 4 4 6 5 4 5 6 8 9 8 7 7 8 11 13 12 11 9 7 9 12 11 10 12 16 19 20 18 17 17 16 14 11 8 6 7 9 10 9 8 6 5 5 6 8 8 8 8 10 10 11 11 11 11 12
4 6 5 4 3 2 4 4 3 3 3 5 6 5 3 1 5 8 9 8 7 7 10 15 15 10 8 13 16 12 12 17 20 21 20 19 18 18 16 12 10 9 9 10 12 10 8 6 5 5 5 6 6 6 7 8 9 10 10 11 11 12 13
3 3 5 5 4 3 5 4 3 3 1 3 4 4 4 4 5 3 3 8 10 8 7 12 18 18 15 18 19 15 14 18 21 20 20 20 20 17 14 14 15 14 13 11 9 7 6 6 5 5 5 5 5 5 6 7 8 9 9 10 11 12 14
3 3 4 4 4 5 5 4 2 2 2 2 1 1 2 3 6 8 6 2 7 12 11 10 16 23 22 20 20 19 17 17 20 20 20 20 19 17 15 16 16 14 11 8 7 5 5 4 4 4 4 5 5 5 6 6 7 8 9 9 10 11 13

ECMWFFLT2_925_spd_087.txt.gz
Wind_Speed
5 7 7 6 6 5 2 3 5 4 5 7 5 3 3 3 3 1 0 1 4 1 3 7 6 7 7 6 6 7 9 10 9 6 5 7 8 6 4 3 1 3 9 17 21 24 26 27 29 31 32 34 34 34 34 33 32 32 32 31 30 29 29
6 3 5 4 3 5 5 3 5 3 2 3 4 3 2 3 2 1 1 1 3 1 1 4 6 8 7 6 7 7 7 8 8 8 10 10 8 6 5 6 6 4 7 14 18 21 24 27 29 32 33 34 35 35 34 34 32 32 33 32 32 31 30
6 3 5 3 2 2 5 5 3 3 3 1 1 4 3 3 3 1 3 2 1 1 2 2 4 5 6 7 8 9 10 10 9 10 12 11 9 8 6 6 6 6 8 13 16 20 24 26 26 28 29 31 33 34 35 36 35 34 33 32 32 32 31
3 3 4 3 2 3 3 3 2 1 3 3 3 3 3 5 4 2 1 2 2 3 3 1 1 1 5 8 8 9 11 12 12 12 12 10 9 9 8 7 6 5 7 9 13 18 21 21 20 21 21 22 24 26 27 28 26 25 25 26 27 28 28
1 1 0 4 5 2 2 3 2 0 1 1 3 1 2 4 4 3 2 1 3 3 2 3 3 0 4 8 9 8 9 11 11 10 9 7 6 6 6 5 4 4 4 3 6 11 13 14 15 15 13 12 13 15 14 12 12 15 20 23 24 23 23
2 2 4 3 6 5 5 4 1 3 2 2 3 1 1 2 4 3 4 3 4 3 1 2 4 3 4 8 11 9 8 10 10 8 7 6 5 4 4 4 3 2 2 2 1 6 8 10 12 12 11 10 10 13 15 15 17 21 26 27 25 22 23
2 6 7 2 2 3 5 4 2 3 3 3 4 3 2 2 4 2 3 2 3 3 1 2 4 5 5 6 10 10 8 8 9 8 8 7 5 4 5 5 4 5 7 7 6 2 4 9 12 13 15 13 11 14 19 22 23 24 28 28 24 23 25
4 6 6 4 5 6 5 3 2 1 1 2 4 5 3 4 4 2 3 1 3 2 2 3 5 7 7 6 8 11 9 6 7 8 8 8 7 7 6 5 6 8 8 7 7 6 3 9 14 17 18 17 17 16 19 21 22 24 26 25 22 23 27
4 5 6 7 7 5 3 3 4 3 3 5 4 2 3 3 3 4 5 2 3 0 3 4 6 9 9 7 7 9 9 7 6 6 6 7 7 7 7 7 7 8 8 7 8 7 6 10 16 19 19 20 24 21 20 19 20 22 24 24 22 23 27
2 2 2 3 4 4 2 3 5 6 4 4 3 2 4 3 3 4 5 3 2 2 4 5 6 9 10 7 7 7 7 7 6 5 5 5 6 8 9 8 8 7 8 9 10 12 11 12 15 18 18 18 21 19 17 17 20 22 22 22 21 21 24
3 4 4 4 3 2 3 4 6 7 5 3 4 4 2 3 5 2 2 5 8 7 7 8 8 9 9 8 8 7 7 6 6 5 5 5 6 7 8 8 8 7 8 9 12 15 14 12 11 12 13 12 13 16 18 21 24 23 22 22 22 21 21
1 2 2 4 2 1 1 4 6 7 7 5 5 3 4 7 7 1 5 9 13 12 12 10 9 8 9 8 8 8 7 6 6 6 6 7 6 6 7 8 8 7 7 8 11 15 15 14 13 12 11 11 12 14 17 21 22 22 23 23 21 19 17
5 7 7 6 3 2 2 5 7 8 9 5 5 2 2 6 5 4 8 12 11 10 11 9 8 8 9 9 8 8 8 7 7 7 7 7 6 6 7 7 7 8 7 7 11 13 14 14 15 14 13 13 15 15 15 16 16 17 19 20 19 17 15
7 11 10 7 5 5 6 8 9 9 8 5 6 4 4 5 4 6 12 11 3 3 7 9 7 8 8 9 8 8 8 8 8 7 7 7 6 6 6 6 7 7 7 9 12 13 13 13 14 14 14 14 15 16 16 15 14 15 17 19 18 15 14
6 10 11 9 6 7 8 10 13 13 9 6 5 4 4 7 7 8 12 10 3 1 5 9 9 8 9 10 9 9 8 8 8 8 7 7 7 6 6 6 7 7 8 10 13 13 12 12 13 14 15 16 16 15 14 13 13 15 17 15 11 7 7
3 7 10 9 6 7 10 12 14 14 9 4 2 1 0 5 10 11 9 7 4 4 6 10 9 9 11 11 11 9 8 8 9 9 8 8 7 6 6 6 6 6 7 10 13 13 12 11 11 13 14 16 17 17 16 15 15 14 13 12 10 8 8
3 7 8 6 5 7 6 7 8 8 8 4 2 4 4 4 11 10 5 5 6 7 9 11 10 11 11 10 10 10 9 9 9 9 8 8 7 6 6 5 5 6 7 10 13 13 13 12 12 13 14 15 15 16 17 16 16 16 15 14 14 13 12
2 7 8 6 6 4 2 5 5 5 4 5 6 6 7 5 2 3 3 6 10 11 11 12 12 10 10 8 8 8 9 9 9 8 8 8 7 7 7 6 6 8 11 12 12 13 14 15 16 16 17 17 17 17 18 18 19 19 17 15 15 14 14
1 5 8 6 3 1 5 6 6 4 2 7 9 8 9 9 6 4 9 10 10 10 9 10 10 9 9 8 8 9 9 9 10 9 8 8 8 8 7 6 7 11 14 14 13 14 16 17 17 17 17 19 20 19 19 20 20 20 18 16 16 16 15
2 3 4 2 2 5 6 7 6 4 4 7 7 6 8 10 9 3 7 8 7 8 9 9 10 11 11 9 7 7 8 8 10 10 8 7 7 6 6 8 9 12 15 15 15 14 15 15 15 15 15 17 18 19 20 20 20 19 18 18 18 17 17
3 4 2 1 2 5 5 5 4 3 3 3 1 1 4 6 7 4 5 8 7 9 10 9 10 12 12 9 4 4 6 8 9 10 9 9 9 10 11 14 14 15 17 19 18 18 17 16 16 15 14 16 18 19 19 19 18 17 18 18 17 17 17
2 4 2 2 2 2 4 5 5 2 2 4 2 3 2 5 5 4 5 9 8 10 11 10 11 11 10 6 3 3 5 8 9 11 12 14 16 17 18 19 19 20 20 21 21 21 20 19 18 17 17 17 19 19 18 18 17 17 17 17 16 15 16
2 4 3 2 2 2 4 6 7 5 4 4 2 4 3 4 2 2 4 10 9 9 10 8 8 8 7 5 4 4 6 8 9 10 12 16 19 20 22 23 23 22 21 21 21 21 21 19 17 18 17 17 18 18 17 16 17 17 17 16 15 14 13
2 4 2 1 2 2 3 6 8 7 5 1 4 3 4 4 3 2 5 10 8 7 7 5 5 5 4 5 5 6 7 8 10 12 14 17 20 22 23 25 24 23 21 20 19 19 19 17 16 15 15 16 16 16 15 16 17 17 16 14 13 12 12
2 3 2 1 2 2 4 6 9 8 5 3 4 3 6 4 4 4 6 10 10 8 7 5 4 4 3 3 4 6 8 9 10 13 17 19 21 22 23 24 24 24 22 21 20 17 15 14 13 13 13 14 15 14 14 16 16 15 13 12 11 11 11
2 1 2 1 2 3 3 6 8 5 3 1 3 5 4 4 5 5 5 7 10 9 7 5 6 8 9 7 4 6 8 9 10 13 17 19 20 21 22 22 24 24 23 22 21 18 15 13 12 10 10 12 13 12 13 15 14 11 10 10 10 10 11
1 2 3 3 1 4 3 6 6 3 1 4 5 2 2 3 6 6 5 5 7 7 7 6 6 10 13 12 10 8 7 9 12 15 17 18 19 20 21 21 22 23 22 20 19 18 15 14 12 10 10 11 11 11 12 13 11 9 9 9 9 10 11
2 2 1 1 4 5 4 3 1 2 3 4 4 3 1 2 3 5 5 5 3 3 6 8 8 10 12 13 12 11 9 9 12 15 17 19 20 20 21 21 21 22 22 20 18 16 13 12 11 10 10 10 10 10 10 9 8 8 8 8 9 10 11
2 3 5 4 4 5 4 1 2 4 4 1 3 5 2 0 2 4 4 4 3 4 4 7 8 9 11 12 12 11 10 9 11 14 17 20 21 21 21 20 19 20 20 19 17 15 12 11 10 10 10 10 11 11 9 7 7 8 8 8 9 10 11
0 1 3 3 4 4 5 4 3 4 4 3 2 4 4 2 1 3 5 6 6 7 7 7 6 4 2 6 9 11 10 9 11 15 18 20 22 22 21 20 18 18 17 16 15 14 12 11 10 10 10 11 12 12 9 8 7 7 7 9 10 10 11
2 0 3 4 4 3 4 6 5 5 5 5 3 3 4 3 4 5 6 7 8 8 9 10 10 6 3 2 1 5 8 9 11 15 17 19 20 21 21 20 18 17 16 15 14 14 12 11 10 10 11 11 12 11 9 8 8 7 8 9 9 10 10
2 3 5 4 3 3 2 4 4 5 6 6 5 4 2 5 6 5 6 8 8 8 8 11 13 13 10 4 2 1 4 7 10 13 16 17 19 20 21 20 17 15 15 15 14 13 12 11 10 9 9 9 9 8 8 7 7 6 7 8 8 9 10
2 4 5 3 1 2 4 5 4 4 5 4 5 6 4 4 7 6 6 6 6 8 10 10 12 13 13 12 10 6 5 7 10 13 16 17 19 20 20 18 16 15 15 15 15 14 13 10 8 7 6 5 5 6 6 6 5 6 7 7 8 9 10
3 4 3 1 2 2 4 3 3 4 4 5 6 6 6 5 4 4 6 6 6 8 12 13 13 11 9 12 14 11 9 12 15 17 19 19 19 20 19 16 14 14 15 15 16 15 12 9 7 6 4 3 3 3 4 4 5 5 6 6 8 9 10
4 6 6 4 3 2 4 3 2 2 0 5 6 5 5 5 5 4 3 5 5 7 10 14 15 12 10 12 13 10 10 14 18 19 20 20 20 20 19 16 14 14 16 16 16 14 11 8 6 5 5 4 4 3 4 4 5 5 5 6 7 8 9
3 4 5 5 3 2 4 5 4 3 2 5 4 1 1 3 5 5 4 2 3 5 7 10 15 17 16 17 16 13 12 16 19 19 20 21 21 20 18 16 16 17 18 17 15 12 10 8 6 6 5 5 4 3 3 4 5 5 6 6 6 7 8
2 3 5 5 4 4 4 3 3 3 1 2 3 3 3 2 3 5 5 4 2 4 6 7 13 20 21 19 18 18 18 19 21 21 21 20 21 20 18 18 19 20 19 17 14 12 10 8 7 6 5 5 4 4 3 3 3 4 5 5 6 7 8